Location: Allos
(44.2333°N, 6.6333°E)
Time: 22:36:37
(UTC+00:00)

Cosmos 1821 Rocket - Pass Details

Date: 17 April 2021
Orbit: 946 x 1003 km, 82.9° (Epoch: 16 May)

Event Time Altitude Azimuth Distance (km) Brightness Sun altitude
Rises 03:04:38 0° 344° (NNW) 3,697 7.3 -17.3°
Reaches altitude 10° 03:07:20 10° 336° (NNW) 2,753 6.5 -16.9°
Maximum altitude 03:13:00 36° 272° (W) 1,517 4.6 -16.1°
Enters shadow 03:16:27 21° 221° (SW) 2,068 5.1 -15.5°
